LUCH-5V

Last updated on Tue Sep 22 2026 00:03:13 GMT+0000 (Coordinated Universal Time)

1 39727U 14023A 26264.43655044 -.00000268 00000+0 00000+0 0 9994 2 39727 5.3669 68.6881 0002778 140.4006 43.0730 1.00268430 45320
UTC large
Height (km)
Speed (km/s)
/
Latitude / Longitude
Inclination (degrees)
Orbital Period (minutes)
Azimuth
Elevation
Range (km)
Doppler Factor

Next 0 passes for location: London (51.5072 / 0.1276)

No passes found over London.
LUCH-5V